contact:dominique.lefevre@mio.osupytheas.fr, maurice.libes@osupytheas.fr, didier.mallarino@osupytheas.fr
Project:EMSO http://www.emso-fr.org/EMSO-France
Depth: 2436.0 m
Title:EMSO Ligure Ouest : Data MII capteur AQUADOPP
Date,Latitude,Longitude,X_East,Y_North,Z_Up,Amplitude_X,Amplitude_Y,Amplitude_Z,Batterie,SoundSpeed,Heading,Pitch,Roll,Pressure,TIS,Speed,Direction
, degrees North, degrees East, m.s-1, m.s-1,m.s-1, 1, 1, 1, Volt, m.s-1, degree, degree, degree, dbar, degree_C, m.s-1, degree
2021-12-26T00:04:03,42.805,6.029,-0.027,0.009,-0.018,101.0,102.0,100.0,13.4,1505.2,327.6,-0.8,1.8,2470.694,13.28,0.028,288.4
2021-12-26T00:07:03,42.805,6.029,-0.011,0.004,0.005,101.0,105.0,100.0,13.3,1505.2,323.7,-0.8,1.8,2470.695,13.28,0.011,290.0
2021-12-26T00:10:03,42.805,6.029,-0.025,0.012,0.0,102.0,101.0,100.0,13.4,1505.2,327.2,-0.8,1.8,2470.681,13.28,0.027,295.6
2021-12-26T00:13:03,42.805,6.029,-0.042,0.007,-0.012,101.0,100.0,100.0,13.4,1505.2,327.1,-0.8,1.9,2470.652,13.28,0.042,279.5
2021-12-26T00:16:03,42.805,6.029,-0.054,0.013,-0.034,100.0,101.0,101.0,13.4,1505.2,328.7,-0.8,1.9,2470.647,13.28,0.055,283.5
2021-12-26T00:19:03,42.805,6.029,-0.034,0.01,0.0,102.0,99.0,99.0,13.4,1505.2,330.1,-0.8,1.8,2470.671,13.28,0.035,286.4
2021-12-26T00:22:03,42.805,6.029,-0.039,-0.003,-0.037,100.0,101.0,100.0,13.4,1505.2,324.3,-0.8,1.8,2470.653,13.28,0.039,265.6
2021-12-26T00:25:03,42.805,6.029,-0.042,-0.002,-0.045,100.0,101.0,100.0,13.4,1505.2,325.8,-0.8,1.8,2470.632,13.29,0.042,267.3
2021-12-26T00:28:03,42.805,6.029,-0.032,0.012,-0.032,99.0,101.0,101.0,13.4,1505.2,330.5,-0.8,1.8,2470.645,13.29,0.034,290.6
2021-12-26T00:31:03,42.805,6.029,-0.039,0.008,-0.027,102.0,101.0,100.0,13.4,1505.2,324.6,-0.8,1.8,2470.683,13.29,0.039,281.6
2021-12-26T00:34:03,42.805,6.029,-0.03,0.019,-0.014,102.0,104.0,101.0,13.4,1505.2,327.3,-0.7,1.8,2470.637,13.29,0.035,302.3
2021-12-26T00:37:03,42.805,6.029,-0.025,0.021,0.002,101.0,100.0,100.0,13.4,1505.2,325.7,-0.8,1.8,2470.655,13.29,0.032,310.0
2021-12-26T00:40:03,42.805,6.029,-0.026,0.003,-0.022,101.0,102.0,100.0,13.4,1505.2,324.0,-0.7,1.8,2470.654,13.29,0.026,276.6
2021-12-26T00:43:03,42.805,6.029,-0.031,0.028,0.007,101.0,101.0,100.0,13.3,1505.2,328.8,-0.8,1.8,2470.634,13.29,0.041,312.1
2021-12-26T00:46:03,42.805,6.029,-0.039,0.021,-0.011,101.0,100.0,100.0,13.4,1505.2,328.3,-0.8,1.8,2470.639,13.29,0.044,298.3
2021-12-26T00:49:03,42.805,6.029,-0.057,0.012,-0.025,102.0,101.0,100.0,13.3,1505.2,325.2,-0.7,1.8,2470.633,13.29,0.058,281.9
2021-12-26T00:52:03,42.805,6.029,-0.021,0.012,-0.018,101.0,101.0,101.0,13.4,1505.2,324.5,-0.7,1.8,2470.644,13.29,0.024,299.7
2021-12-26T00:55:03,42.805,6.029,-0.027,0.019,-0.008,101.0,103.0,100.0,13.4,1505.2,329.7,-0.7,1.8,2470.663,13.29,0.033,305.1
2021-12-26T00:58:03,42.805,6.029,-0.028,0.009,-0.02,102.0,100.0,100.0,13.4,1505.2,329.2,-0.7,1.8,2470.614,13.29,0.029,287.8
2021-12-26T01:04:03,42.805,6.029,-0.021,-0.02,-0.009,102.0,102.0,101.0,13.3,1505.2,325.0,-0.8,1.8,2470.683,13.28,0.028,226.4
2021-12-26T01:07:03,42.805,6.029,-0.029,0.024,0.017,101.0,102.0,102.0,13.3,1505.2,327.4,-0.8,1.8,2470.647,13.28,0.037,309.6
2021-12-26T01:10:03,42.805,6.029,-0.034,0.013,-0.001,102.0,101.0,100.0,13.4,1505.2,328.7,-0.8,1.8,2470.635,13.28,0.036,290.9
2021-12-26T01:13:03,42.805,6.029,-0.028,-0.006,-0.022,101.0,102.0,100.0,13.3,1505.2,329.5,-0.7,1.8,2470.626,13.29,0.028,257.9
2021-12-26T01:16:03,42.805,6.029,-0.029,0.014,-0.02,102.0,102.0,100.0,13.4,1505.2,327.2,-0.8,1.8,2470.66,13.29,0.032,295.8
2021-12-26T01:19:03,42.805,6.029,-0.029,0.002,-0.007,101.0,100.0,102.0,13.4,1505.2,330.9,-0.7,1.8,2470.651,13.29,0.029,273.9
2021-12-26T01:22:03,42.805,6.029,-0.03,0.01,-0.003,101.0,102.0,100.0,13.4,1505.2,325.3,-0.7,1.8,2470.647,13.29,0.031,288.4
2021-12-26T01:25:03,42.805,6.029,-0.015,0.012,0.0,101.0,102.0,100.0,13.3,1505.2,326.3,-0.7,1.8,2470.668,13.29,0.019,308.7
2021-12-26T01:28:03,42.805,6.029,-0.037,0.004,-0.01,101.0,101.0,101.0,13.4,1505.2,329.7,-0.8,1.8,2470.632,13.29,0.037,276.2
2021-12-26T01:31:03,42.805,6.029,-0.013,0.01,-0.004,102.0,103.0,98.0,13.4,1505.2,326.3,-0.8,1.8,2470.661,13.29,0.016,307.6
2021-12-26T01:34:03,42.805,6.029,-0.018,0.009,-0.011,100.0,103.0,101.0,13.3,1505.2,327.8,-0.8,1.8,2470.646,13.29,0.02,296.6
2021-12-26T01:37:03,42.805,6.029,-0.041,-0.006,-0.04,103.0,102.0,99.0,13.3,1505.2,328.3,-0.7,1.8,2470.622,13.29,0.041,261.7
2021-12-26T01:40:03,42.805,6.029,-0.027,0.026,-0.023,103.0,101.0,99.0,13.4,1505.2,329.1,-0.8,1.8,2470.618,13.29,0.037,313.9
2021-12-26T01:43:03,42.805,6.029,-0.019,0.013,0.009,101.0,101.0,101.0,13.4,1505.2,329.1,-0.8,1.8,2470.615,13.29,0.023,304.4
2021-12-26T01:46:03,42.805,6.029,-0.015,0.009,-0.007,103.0,102.0,100.0,13.3,1505.2,329.9,-0.7,1.9,2470.661,13.29,0.017,301.0
2021-12-26T01:49:03,42.805,6.029,-0.032,0.004,-0.023,101.0,101.0,100.0,13.3,1505.2,330.6,-0.7,1.9,2470.581,13.29,0.032,277.1
2021-12-26T01:52:03,42.805,6.029,-0.017,0.023,0.004,101.0,101.0,100.0,13.4,1505.2,329.8,-0.7,1.8,2470.617,13.29,0.028,323.5
2021-12-26T01:55:03,42.805,6.029,-0.045,0.01,-0.029,102.0,100.0,100.0,13.4,1505.2,328.9,-0.8,1.9,2470.629,13.29,0.046,282.5
2021-12-26T01:58:03,42.805,6.029,-0.028,0.001,-0.027,100.0,102.0,101.0,13.4,1505.2,325.7,-0.7,1.8,2470.611,13.29,0.028,272.0
2021-12-26T02:04:03,42.805,6.029,-0.008,0.0,-0.005,101.0,101.0,100.0,13.4,1505.2,326.3,-0.8,1.8,2470.609,13.28,0.008,270.0
2021-12-26T02:07:03,42.805,6.029,-0.021,-0.001,-0.03,100.0,101.0,100.0,13.4,1505.2,326.3,-0.7,1.8,2470.662,13.29,0.021,267.3
2021-12-26T02:10:03,42.805,6.029,-0.028,0.026,0.001,102.0,101.0,100.0,13.4,1505.2,329.6,-0.7,1.8,2470.613,13.29,0.038,312.9
2021-12-26T02:13:03,42.805,6.029,-0.018,0.003,-0.024,102.0,101.0,98.0,13.4,1505.2,331.1,-0.8,1.8,2470.65,13.29,0.018,279.5
2021-12-26T02:16:03,42.805,6.029,-0.033,0.015,-0.015,102.0,100.0,100.0,13.4,1505.2,326.7,-0.7,1.8,2470.604,13.29,0.036,294.4
2021-12-26T02:19:03,42.805,6.029,-0.044,0.032,-0.02,101.0,99.0,100.0,13.4,1505.2,330.1,-0.7,1.8,2470.676,13.29,0.054,306.0
2021-12-26T02:22:03,42.805,6.029,-0.023,0.03,-0.002,101.0,101.0,100.0,13.4,1505.2,330.5,-0.8,1.9,2470.615,13.29,0.037,322.5
2021-12-26T02:25:03,42.805,6.029,-0.026,-0.002,-0.014,99.0,101.0,100.0,13.4,1505.2,327.8,-0.8,1.8,2470.622,13.29,0.026,265.6
2021-12-26T02:28:03,42.805,6.029,-0.002,0.004,-0.013,101.0,103.0,99.0,13.4,1505.2,325.2,-0.8,1.8,2470.603,13.29,0.004,333.4
2021-12-26T02:31:03,42.805,6.029,-0.043,0.018,-0.019,102.0,101.0,100.0,13.4,1505.2,326.1,-0.8,1.8,2470.613,13.29,0.046,292.7
2021-12-26T02:34:03,42.805,6.029,-0.047,0.01,-0.011,100.0,100.0,101.0,13.4,1505.2,330.6,-0.7,1.8,2470.643,13.29,0.048,282.0
2021-12-26T02:37:03,42.805,6.029,-0.022,0.013,-0.012,101.0,101.0,99.0,13.4,1505.2,326.6,-0.8,1.8,2470.651,13.29,0.025,300.6
2021-12-26T02:40:03,42.805,6.029,-0.018,0.004,0.01,99.0,102.0,100.0,13.4,1505.2,327.9,-0.7,1.8,2470.63,13.29,0.018,282.5
2021-12-26T02:43:03,42.805,6.029,-0.008,0.003,-0.023,100.0,102.0,99.0,13.4,1505.2,329.7,-0.7,1.8,2470.655,13.29,0.008,290.6
2021-12-26T02:46:03,42.805,6.029,-0.03,0.026,-0.023,102.0,101.0,100.0,13.3,1505.2,326.9,-0.8,1.8,2470.6,13.29,0.039,310.9
2021-12-26T02:49:03,42.805,6.029,-0.025,0.024,-0.016,100.0,101.0,100.0,13.4,1505.2,329.9,-0.7,1.8,2470.557,13.29,0.034,313.8
2021-12-26T02:52:03,42.805,6.029,-0.024,0.025,-0.016,101.0,102.0,99.0,13.4,1505.2,331.2,-0.8,1.8,2470.605,13.29,0.034,316.2
2021-12-26T02:55:03,42.805,6.029,0.0,0.007,-0.026,101.0,102.0,101.0,13.4,1505.2,326.9,-0.7,1.8,2470.618,13.29,0.007,0.0
2021-12-26T02:58:03,42.805,6.029,-0.024,0.029,-0.027,100.0,102.0,100.0,13.4,1505.2,324.4,-0.8,1.8,2470.582,13.29,0.037,320.4
2021-12-26T03:04:03,42.805,6.029,-0.018,0.008,-0.024,101.0,100.0,100.0,13.4,1505.2,328.7,-0.8,1.8,2470.632,13.28,0.019,294.0
2021-12-26T03:07:03,42.805,6.029,-0.014,0.036,-0.004,100.0,101.0,100.0,13.4,1505.2,331.6,-0.8,1.8,2470.639,13.28,0.038,338.8
2021-12-26T03:10:03,42.805,6.029,-0.022,-0.002,-0.022,101.0,102.0,101.0,13.4,1505.2,329.6,-0.8,1.8,2470.613,13.28,0.022,264.8
2021-12-26T03:13:03,42.805,6.029,-0.024,0.026,0.006,102.0,100.0,100.0,13.4,1505.2,324.0,-0.7,1.8,2470.596,13.28,0.035,317.3
2021-12-26T03:16:03,42.805,6.029,-0.031,0.016,0.003,100.0,101.0,101.0,13.3,1505.2,330.6,-0.8,1.8,2470.62,13.29,0.034,297.3
2021-12-26T03:19:03,42.805,6.029,-0.023,0.019,0.006,101.0,102.0,99.0,13.4,1505.2,328.2,-0.8,1.9,2470.585,13.29,0.029,309.6
2021-12-26T03:22:03,42.805,6.029,-0.027,0.0,-0.055,102.0,99.0,99.0,13.3,1505.2,328.1,-0.8,1.8,2470.621,13.29,0.026,270.0
2021-12-26T03:25:03,42.805,6.029,-0.01,0.01,0.016,100.0,100.0,101.0,13.3,1505.2,324.7,-0.7,1.8,2470.665,13.29,0.014,315.0
2021-12-26T03:28:03,42.805,6.029,-0.012,0.019,-0.023,102.0,100.0,100.0,13.4,1505.2,329.1,-0.8,1.9,2470.62,13.29,0.022,327.7
2021-12-26T03:31:03,42.805,6.029,-0.021,0.003,-0.007,102.0,101.0,100.0,13.4,1505.2,328.8,-0.7,1.8,2470.617,13.29,0.021,278.1
2021-12-26T03:34:03,42.805,6.029,-0.026,0.019,0.0,100.0,101.0,100.0,13.4,1505.2,325.4,-0.7,1.8,2470.622,13.29,0.032,306.2
2021-12-26T03:37:03,42.805,6.029,-0.029,0.001,-0.008,100.0,101.0,100.0,13.3,1505.2,330.8,-0.7,1.8,2470.583,13.29,0.029,272.0
2021-12-26T03:40:03,42.805,6.029,-0.051,0.013,-0.009,100.0,101.0,99.0,13.3,1505.2,329.9,-0.7,1.8,2470.583,13.29,0.052,284.3
2021-12-26T03:43:03,42.805,6.029,-0.016,-0.005,-0.036,101.0,101.0,100.0,13.3,1505.2,331.2,-0.8,1.8,2470.614,13.29,0.016,252.6
2021-12-26T03:46:03,42.805,6.029,-0.029,0.008,-0.034,100.0,101.0,100.0,13.4,1505.2,331.5,-0.7,1.8,2470.601,13.29,0.03,285.4
2021-12-26T03:49:03,42.805,6.029,-0.025,0.019,0.001,102.0,101.0,100.0,13.4,1505.2,324.2,-0.7,1.8,2470.631,13.29,0.031,307.2
2021-12-26T03:52:03,42.805,6.029,-0.045,0.0,-0.052,101.0,101.0,100.0,13.3,1505.2,329.0,-0.8,1.8,2470.601,13.29,0.045,270.0
2021-12-26T03:55:03,42.805,6.029,-0.005,0.02,0.01,101.0,101.0,100.0,13.4,1505.2,330.2,-0.8,1.8,2470.593,13.29,0.02,346.0
2021-12-26T03:58:03,42.805,6.029,-0.037,0.034,0.006,102.0,101.0,100.0,13.4,1505.2,324.5,-0.8,1.8,2470.606,13.29,0.05,312.6
2021-12-26T04:04:03,42.805,6.029,-0.007,0.004,-0.018,103.0,100.0,101.0,13.4,1505.2,324.4,-0.7,1.8,2470.628,13.28,0.008,299.7
2021-12-26T04:07:03,42.805,6.029,-0.021,0.02,-0.019,101.0,101.0,101.0,13.3,1505.2,328.4,-0.8,1.8,2470.669,13.28,0.028,313.6
2021-12-26T04:10:03,42.805,6.029,-0.018,0.004,0.004,103.0,102.0,99.0,13.4,1505.2,324.7,-0.8,1.8,2470.662,13.28,0.018,282.5
2021-12-26T04:13:03,42.805,6.029,-0.014,-0.004,-0.052,100.0,102.0,100.0,13.4,1505.2,330.5,-0.8,1.8,2470.622,13.29,0.014,254.1
2021-12-26T04:16:03,42.805,6.029,-0.032,0.011,-0.029,101.0,101.0,100.0,13.4,1505.2,325.3,-0.7,1.8,2470.598,13.29,0.033,289.0
2021-12-26T04:19:03,42.805,6.029,-0.035,0.006,-0.043,102.0,101.0,100.0,13.3,1505.2,328.0,-0.7,1.9,2470.638,13.29,0.035,279.7
2021-12-26T04:22:03,42.805,6.029,-0.009,0.016,0.023,100.0,101.0,100.0,13.4,1505.2,327.9,-0.7,1.8,2470.612,13.29,0.018,330.6
2021-12-26T04:25:03,42.805,6.029,-0.012,0.013,-0.026,100.0,101.0,101.0,13.4,1505.2,331.0,-0.8,1.8,2470.618,13.29,0.017,317.3
2021-12-26T04:28:03,42.805,6.029,-0.028,0.046,-0.007,101.0,101.0,100.0,13.4,1505.2,325.9,-0.8,1.8,2470.6,13.29,0.053,328.7
2021-12-26T04:31:03,42.805,6.029,-0.015,0.021,-0.022,101.0,101.0,101.0,13.4,1505.2,330.3,-0.7,1.8,2470.606,13.29,0.025,324.5
2021-12-26T04:34:03,42.805,6.029,-0.015,0.044,0.027,101.0,101.0,99.0,13.3,1505.2,326.1,-0.7,1.8,2470.6,13.29,0.046,341.2
2021-12-26T04:37:03,42.805,6.029,-0.024,0.035,0.023,101.0,101.0,100.0,13.3,1505.2,326.3,-0.8,1.8,2470.586,13.29,0.042,325.6
2021-12-26T04:40:03,42.805,6.029,-0.032,-0.004,-0.032,100.0,102.0,100.0,13.4,1505.2,328.8,-0.7,1.8,2470.572,13.29,0.032,262.9
2021-12-26T04:43:03,42.805,6.029,-0.02,0.039,0.003,103.0,99.0,99.0,13.4,1505.2,328.9,-0.7,1.8,2470.576,13.29,0.043,332.9
2021-12-26T04:46:03,42.805,6.029,-0.037,0.028,-0.044,99.0,101.0,102.0,13.3,1505.2,327.6,-0.8,1.8,2470.588,13.29,0.046,307.1
2021-12-26T04:49:03,42.805,6.029,0.0,0.01,0.019,101.0,103.0,98.0,13.4,1505.2,328.4,-0.8,1.9,2470.552,13.29,0.01,0.0
2021-12-26T04:52:03,42.805,6.029,-0.022,0.013,-0.011,100.0,102.0,100.0,13.4,1505.2,327.5,-0.7,1.8,2470.59,13.29,0.025,300.6
2021-12-26T04:55:03,42.805,6.029,-0.003,-0.002,-0.005,102.0,101.0,100.0,13.4,1505.2,324.4,-0.7,1.8,2470.567,13.29,0.003,236.3
2021-12-26T04:58:03,42.805,6.029,-0.029,0.012,0.003,101.0,101.0,100.0,13.4,1505.2,327.0,-0.8,1.8,2470.556,13.29,0.031,292.5
2021-12-26T05:04:03,42.805,6.029,0.003,0.008,-0.008,102.0,102.0,100.0,13.3,1505.2,329.3,-0.8,1.8,2470.615,13.28,0.008,20.6
2021-12-26T05:07:03,42.805,6.029,-0.017,-0.002,0.002,99.0,101.0,101.0,13.3,1505.2,324.6,-0.8,1.8,2470.616,13.28,0.017,263.3
2021-12-26T05:10:03,42.805,6.029,-0.017,0.004,-0.033,100.0,101.0,99.0,13.3,1505.2,330.8,-0.8,1.9,2470.572,13.29,0.017,283.2
2021-12-26T05:13:03,42.805,6.029,-0.008,0.021,0.016,101.0,100.0,100.0,13.4,1505.2,326.4,-0.7,1.8,2470.554,13.29,0.022,339.1
2021-12-26T05:16:03,42.805,6.029,-0.019,0.015,-0.007,100.0,102.0,100.0,13.4,1505.2,324.8,-0.8,1.8,2470.538,13.29,0.024,308.3
2021-12-26T05:19:03,42.805,6.029,-0.01,0.007,-0.01,102.0,102.0,100.0,13.4,1505.2,325.4,-0.7,1.9,2470.521,13.29,0.012,305.0
2021-12-26T05:22:03,42.805,6.029,0.002,0.006,-0.005,102.0,102.0,101.0,13.3,1505.2,330.6,-0.7,1.8,2470.521,13.29,0.006,18.4
2021-12-26T05:25:03,42.805,6.029,-0.023,0.021,-0.013,100.0,102.0,100.0,13.4,1505.2,326.9,-0.8,1.8,2470.423,13.29,0.031,312.4
2021-12-26T05:28:03,42.805,6.029,0.0,0.029,0.015,101.0,102.0,100.0,13.3,1505.2,324.1,-0.8,1.8,2470.459,13.29,0.028,0.0
2021-12-26T05:31:03,42.805,6.029,-0.006,0.022,0.005,98.0,102.0,101.0,13.4,1505.2,330.4,-0.8,1.8,2470.396,13.29,0.022,344.7
2021-12-26T05:34:03,42.805,6.029,-0.053,0.024,-0.015,100.0,101.0,101.0,13.4,1505.2,327.7,-0.7,1.8,2470.37,13.29,0.058,294.4
2021-12-26T05:37:03,42.805,6.029,-0.01,0.014,-0.018,102.0,102.0,100.0,13.4,1505.2,324.5,-0.8,1.8,2470.362,13.29,0.017,324.5
2021-12-26T05:40:03,42.805,6.029,-0.035,0.015,-0.021,101.0,100.0,100.0,13.4,1505.2,329.4,-0.8,1.8,2470.362,13.29,0.038,293.2
2021-12-26T05:43:03,42.805,6.029,-0.018,0.028,-0.027,101.0,101.0,100.0,13.4,1505.2,331.6,-0.7,1.8,2470.364,13.29,0.033,327.3
2021-12-26T05:46:03,42.805,6.029,-0.023,0.023,0.004,101.0,100.0,100.0,13.4,1505.2,325.0,-0.7,1.8,2470.363,13.29,0.032,315.0
2021-12-26T05:49:03,42.805,6.029,-0.006,0.01,-0.017,102.0,100.0,100.0,13.3,1505.2,326.8,-0.8,1.8,2470.324,13.29,0.011,329.0
2021-12-26T05:52:03,42.805,6.029,-0.012,0.021,0.029,101.0,101.0,100.0,13.4,1505.2,328.8,-0.8,1.8,2470.322,13.29,0.024,330.3
2021-12-26T05:55:03,42.805,6.029,0.004,0.017,0.011,101.0,102.0,98.0,13.4,1505.2,329.0,-0.8,1.8,2470.349,13.29,0.017,13.2
2021-12-26T05:58:03,42.805,6.029,0.005,0.016,0.025,101.0,101.0,100.0,13.4,1505.2,331.6,-0.8,1.8,2470.312,13.29,0.016,17.4
2021-12-26T06:04:03,42.805,6.029,0.002,0.013,0.008,100.0,100.0,100.0,13.4,1505.2,331.5,-0.8,1.8,2470.295,13.28,0.013,8.7
2021-12-26T06:07:03,42.805,6.029,-0.036,0.015,-0.032,101.0,100.0,99.0,13.4,1505.2,326.4,-0.8,1.8,2470.331,13.28,0.039,292.6
2021-12-26T06:10:03,42.805,6.029,0.002,-0.017,-0.036,100.0,101.0,100.0,13.4,1505.2,329.6,-0.7,1.8,2470.36,13.28,0.017,173.3
2021-12-26T06:13:03,42.805,6.029,-0.002,0.012,-0.028,102.0,102.0,99.0,13.3,1505.2,329.4,-0.8,1.8,2470.339,13.28,0.012,350.5
2021-12-26T06:16:03,42.805,6.029,-0.016,0.03,-0.004,101.0,100.0,100.0,13.4,1505.2,328.8,-0.8,1.8,2470.369,13.28,0.034,331.9
2021-12-26T06:19:03,42.805,6.029,-0.014,0.027,-0.001,99.0,102.0,101.0,13.4,1505.2,328.3,-0.8,1.8,2470.382,13.29,0.03,332.6
2021-12-26T06:22:03,42.805,6.029,0.012,0.013,0.0,100.0,100.0,101.0,13.4,1505.2,325.1,-0.7,1.8,2470.375,13.29,0.017,42.7
2021-12-26T06:25:03,42.805,6.029,0.017,-0.007,-0.046,99.0,101.0,101.0,13.4,1505.2,327.8,-0.8,1.8,2470.39,13.29,0.018,112.4
2021-12-26T06:28:03,42.805,6.029,-0.012,0.038,0.01,101.0,101.0,101.0,13.3,1505.2,328.4,-0.8,1.8,2470.344,13.29,0.039,342.5
2021-12-26T06:31:03,42.805,6.029,-0.005,0.026,-0.008,102.0,103.0,99.0,13.4,1505.2,327.5,-0.7,1.8,2470.392,13.29,0.026,349.1
2021-12-26T06:34:03,42.805,6.029,-0.021,0.02,-0.028,101.0,102.0,98.0,13.3,1505.2,330.6,-0.8,1.8,2470.403,13.29,0.028,313.6
2021-12-26T06:37:03,42.805,6.029,0.006,0.021,0.004,102.0,100.0,99.0,13.4,1505.2,327.1,-0.7,1.8,2470.371,13.29,0.021,15.9
2021-12-26T06:40:03,42.805,6.029,-0.014,0.014,-0.028,101.0,101.0,100.0,13.4,1505.2,326.9,-0.8,1.8,2470.424,13.29,0.019,315.0
2021-12-26T06:43:03,42.805,6.029,-0.027,0.008,-0.01,100.0,101.0,100.0,13.4,1505.2,324.8,-0.7,1.8,2470.383,13.29,0.028,286.5
2021-12-26T06:46:03,42.805,6.029,-0.032,0.016,-0.016,101.0,101.0,100.0,13.4,1505.2,327.9,-0.7,1.8,2470.447,13.29,0.035,296.6
2021-12-26T06:49:03,42.805,6.029,-0.036,0.024,-0.011,98.0,102.0,101.0,13.4,1505.2,327.3,-0.8,1.8,2470.406,13.29,0.043,303.7
2021-12-26T06:52:03,42.805,6.029,-0.022,0.029,-0.011,99.0,101.0,101.0,13.4,1505.2,326.7,-0.8,1.8,2470.36,13.29,0.036,322.8
2021-12-26T06:55:03,42.805,6.029,-0.002,0.022,0.025,100.0,100.0,100.0,13.4,1505.2,329.6,-0.7,1.8,2470.396,13.29,0.022,354.8
2021-12-26T06:58:03,42.805,6.029,-0.04,0.018,-0.014,101.0,101.0,100.0,13.4,1505.2,327.6,-0.8,1.8,2470.397,13.29,0.043,294.2
2021-12-26T07:04:03,42.805,6.029,0.019,0.008,0.012,100.0,101.0,100.0,13.4,1505.2,330.2,-0.8,1.8,2470.399,13.28,0.02,67.2
2021-12-26T07:07:03,42.805,6.029,0.001,-0.017,-0.035,100.0,101.0,99.0,13.4,1505.2,325.5,-0.8,1.8,2470.434,13.28,0.017,176.6
2021-12-26T07:10:03,42.805,6.029,0.0,0.002,-0.007,100.0,102.0,98.0,13.4,1505.2,324.8,-0.8,1.8,2470.396,13.28,0.002,0.0
2021-12-26T07:13:03,42.805,6.029,-0.006,0.004,-0.02,99.0,100.0,101.0,13.4,1505.2,327.0,-0.8,1.8,2470.376,13.29,0.007,303.7
2021-12-26T07:16:03,42.805,6.029,-0.015,-0.003,-0.041,101.0,100.0,100.0,13.3,1505.2,327.4,-0.8,1.8,2470.342,13.29,0.015,258.7
2021-12-26T07:19:03,42.805,6.029,0.003,0.021,-0.007,101.0,102.0,99.0,13.4,1505.2,327.8,-0.7,1.8,2470.486,13.29,0.021,8.1
2021-12-26T07:22:03,42.805,6.029,0.0,0.002,0.008,99.0,101.0,101.0,13.3,1505.2,324.5,-0.7,1.8,2470.44,13.29,0.002,0.0
2021-12-26T07:25:03,42.805,6.029,-0.014,0.046,0.02,100.0,101.0,100.0,13.3,1505.2,327.1,-0.8,1.8,2470.35,13.29,0.048,343.1
2021-12-26T07:28:03,42.805,6.029,-0.003,0.032,0.005,100.0,101.0,101.0,13.3,1505.2,330.5,-0.8,1.8,2470.361,13.29,0.032,354.6
2021-12-26T07:31:03,42.805,6.029,-0.007,0.019,-0.006,100.0,101.0,100.0,13.3,1505.2,328.1,-0.7,1.8,2470.389,13.29,0.02,339.8
2021-12-26T07:34:03,42.805,6.029,-0.004,0.002,-0.007,101.0,101.0,99.0,13.4,1505.2,326.3,-0.8,1.8,2470.367,13.29,0.004,296.6
2021-12-26T07:37:03,42.805,6.029,-0.002,0.015,-0.003,100.0,100.0,100.0,13.4,1505.2,331.2,-0.7,1.8,2470.321,13.29,0.015,352.4
2021-12-26T07:40:03,42.805,6.029,0.017,0.008,-0.009,100.0,102.0,100.0,13.4,1505.2,327.0,-0.7,1.8,2470.407,13.29,0.018,64.8
2021-12-26T07:43:03,42.805,6.029,-0.012,0.019,-0.005,100.0,101.0,100.0,13.3,1505.2,331.6,-0.8,1.8,2470.404,13.29,0.022,327.7
2021-12-26T07:46:03,42.805,6.029,-0.01,-0.006,-0.03,99.0,101.0,100.0,13.4,1505.2,324.6,-0.8,1.8,2470.425,13.29,0.011,239.0
2021-12-26T07:49:03,42.805,6.029,-0.001,0.01,-0.004,101.0,100.0,100.0,13.4,1505.2,331.2,-0.8,1.8,2470.424,13.29,0.01,354.3
2021-12-26T07:52:03,42.805,6.029,0.002,0.001,-0.014,100.0,102.0,99.0,13.4,1505.2,326.3,-0.7,1.8,2470.437,13.29,0.002,63.4
2021-12-26T07:55:03,42.805,6.029,-0.004,0.012,-0.004,100.0,103.0,100.0,13.3,1505.2,324.6,-0.8,1.8,2470.423,13.29,0.012,341.6
2021-12-26T07:58:03,42.805,6.029,-0.002,-0.002,-0.021,101.0,101.0,102.0,13.4,1505.2,331.6,-0.8,1.8,2470.443,13.29,0.002,225.0
2021-12-26T08:04:03,42.805,6.029,0.006,0.006,0.014,100.0,101.0,100.0,13.4,1505.2,324.8,-0.7,1.8,2470.488,13.29,0.008,45.0
2021-12-26T08:07:03,42.805,6.029,-0.002,0.012,0.02,100.0,101.0,99.0,13.3,1505.2,329.0,-0.7,1.8,2470.661,13.29,0.012,350.5
2021-12-26T08:10:03,42.805,6.029,0.002,0.014,-0.008,101.0,102.0,101.0,13.4,1505.2,326.5,-0.7,1.9,2470.691,13.29,0.014,8.1
2021-12-26T08:13:03,42.805,6.029,0.004,0.004,0.001,102.0,101.0,100.0,13.4,1505.2,325.6,-0.7,1.8,2470.55,13.29,0.005,45.0
2021-12-26T08:16:03,42.805,6.029,0.012,0.007,-0.009,101.0,101.0,101.0,13.4,1505.2,327.0,-0.8,1.8,2470.445,13.29,0.013,59.7
2021-12-26T08:19:03,42.805,6.029,0.004,0.021,-0.002,102.0,100.0,100.0,13.4,1505.2,331.8,-0.8,1.8,2470.463,13.29,0.021,10.8
2021-12-26T08:22:03,42.805,6.029,-0.013,0.012,0.001,102.0,100.0,100.0,13.4,1505.2,324.3,-0.8,1.8,2470.436,13.29,0.017,312.7
2021-12-26T08:25:03,42.805,6.029,0.008,-0.007,0.0,100.0,100.0,101.0,13.3,1505.2,326.3,-0.7,1.8,2470.517,13.29,0.01,131.2
2021-12-26T08:28:03,42.805,6.029,0.0,-0.009,-0.002,100.0,101.0,101.0,13.3,1505.2,327.6,-0.8,1.8,2470.48,13.29,0.009,180.0
2021-12-26T08:31:03,42.805,6.029,-0.02,-0.002,-0.055,100.0,102.0,101.0,13.4,1505.2,328.3,-0.8,1.8,2470.43,13.29,0.02,264.3
2021-12-26T08:34:03,42.805,6.029,-0.003,-0.017,-0.006,100.0,101.0,99.0,13.4,1505.2,326.2,-0.8,1.9,2470.487,13.29,0.017,190.0
2021-12-26T08:37:03,42.805,6.029,0.004,0.005,0.021,100.0,99.0,101.0,13.3,1505.2,326.3,-0.8,1.8,2470.422,13.29,0.006,38.7
2021-12-26T08:40:03,42.805,6.029,-0.012,0.01,0.008,100.0,101.0,100.0,13.3,1505.2,327.0,-0.7,1.8,2470.536,13.29,0.015,309.8
2021-12-26T08:43:03,42.805,6.029,-0.004,-0.002,0.006,100.0,100.0,100.0,13.4,1505.2,328.3,-0.7,1.8,2470.52,13.29,0.004,243.4
2021-12-26T08:46:03,42.805,6.029,-0.018,-0.004,-0.039,101.0,100.0,100.0,13.4,1505.2,324.4,-0.8,1.8,2470.497,13.29,0.018,257.5
2021-12-26T08:49:03,42.805,6.029,-0.017,-0.001,-0.015,101.0,100.0,100.0,13.3,1505.2,326.1,-0.7,1.8,2470.49,13.29,0.017,266.6
2021-12-26T08:52:03,42.805,6.029,-0.007,0.006,-0.013,102.0,101.0,100.0,13.4,1505.2,330.6,-0.8,1.8,2470.493,13.29,0.009,310.6
2021-12-26T08:55:03,42.805,6.029,-0.018,-0.008,-0.018,100.0,101.0,100.0,13.4,1505.2,328.8,-0.8,1.8,2470.727,13.29,0.019,246.0
2021-12-26T08:58:03,42.805,6.029,-0.012,0.013,0.011,101.0,102.0,100.0,13.4,1505.2,327.9,-0.7,1.8,2470.636,13.3,0.017,317.3
2021-12-26T09:04:03,42.805,6.029,-0.004,0.012,0.009,102.0,102.0,100.0,13.4,1505.2,328.5,-0.8,1.8,2470.51,13.29,0.012,341.6
2021-12-26T09:07:03,42.805,6.029,0.002,0.003,-0.014,102.0,102.0,100.0,13.3,1505.2,324.3,-0.7,1.8,2470.518,13.29,0.003,33.7
2021-12-26T09:10:03,42.805,6.029,-0.035,0.004,0.003,100.0,101.0,100.0,13.4,1505.2,331.0,-0.7,1.8,2470.528,13.29,0.035,276.5
2021-12-26T09:13:03,42.805,6.029,-0.006,-0.012,-0.033,101.0,102.0,102.0,13.3,1505.2,329.0,-0.8,1.8,2470.506,13.29,0.013,206.6
2021-12-26T09:16:03,42.805,6.029,0.001,-0.009,-0.008,102.0,100.0,100.0,13.3,1505.2,330.1,-0.8,1.9,2470.531,13.29,0.009,173.7
2021-12-26T09:19:03,42.805,6.029,-0.018,0.004,-0.024,101.0,101.0,100.0,13.3,1505.2,328.9,-0.8,1.8,2470.511,13.29,0.018,282.5
2021-12-26T09:22:03,42.805,6.029,-0.008,0.019,-0.01,101.0,101.0,100.0,13.4,1505.2,331.4,-0.7,1.8,2470.508,13.3,0.02,337.2
2021-12-26T09:25:03,42.805,6.029,-0.023,0.013,-0.026,100.0,101.0,101.0,13.4,1505.2,324.8,-0.8,1.8,2470.697,13.3,0.026,299.5
2021-12-26T09:28:03,42.805,6.029,0.008,0.002,-0.001,102.0,101.0,101.0,13.4,1505.2,329.4,-0.8,1.8,2470.888,13.29,0.008,76.0
2021-12-26T09:31:03,42.805,6.029,-0.001,-0.004,-0.028,100.0,101.0,100.0,13.4,1505.2,331.2,-0.7,1.8,2470.843,13.29,0.004,194.0
2021-12-26T09:34:03,42.805,6.029,-0.005,-0.002,-0.014,101.0,101.0,100.0,13.4,1505.2,327.3,-0.8,1.8,2470.632,13.29,0.005,248.2
2021-12-26T09:37:03,42.805,6.029,0.024,0.004,0.001,101.0,100.0,100.0,13.4,1505.2,330.1,-0.8,1.8,2470.573,13.29,0.024,80.5
2021-12-26T09:40:03,42.805,6.029,-0.025,0.011,0.004,101.0,100.0,100.0,13.3,1505.2,328.1,-0.8,1.8,2470.864,13.29,0.027,293.7
2021-12-26T09:43:03,42.805,6.029,0.01,-0.003,0.0,101.0,101.0,100.0,13.3,1505.2,331.3,-0.8,1.8,2470.714,13.29,0.01,106.7
2021-12-26T09:46:03,42.805,6.029,0.0,0.011,0.003,102.0,99.0,102.0,13.3,1505.2,326.4,-0.8,1.8,2470.578,13.29,0.011,0.0
2021-12-26T09:49:03,42.805,6.029,-0.009,-0.017,-0.023,102.0,101.0,100.0,13.4,1505.2,329.8,-0.7,1.8,2470.697,13.29,0.019,207.9
2021-12-26T09:52:03,42.805,6.029,0.003,-0.01,-0.042,102.0,101.0,100.0,13.3,1505.2,328.4,-0.7,1.8,2470.784,13.29,0.01,163.3
2021-12-26T09:55:03,42.805,6.029,-0.01,-0.001,-0.002,102.0,105.0,101.0,13.4,1505.2,326.9,-0.7,1.8,2470.83,13.29,0.01,264.3
2021-12-26T09:58:03,42.805,6.029,0.002,-0.004,-0.01,101.0,100.0,100.0,13.4,1505.2,326.7,-0.8,1.8,2470.941,13.29,0.004,153.4